Time,TemperatureF,DewpointF,PressureIn,WindDirection,WindDirectionDegrees,WindSpeedMPH,WindSpeedGustMPH,Humidity,HourlyPrecipIn,Conditions,Clouds,dailyrainin,SoftwareType,DateUTC
2013-09-23 00:01:00,46.8,42.8,30.07,East,89,0.0,0.0,86,0.00,CLR,,0.00,WeatherDisplay:10.37,2013-09-23 04:01:00,
2013-09-23 00:02:00,46.8,43.1,30.07,East,89,0.0,0.0,87,0.00,CLR,,0.00,WeatherDisplay:10.37,2013-09-23 04:02:00,
2013-09-23 00:04:00,46.8,43.1,30.07,East,89,0.0,0.0,87,0.00,CLR,,0.00,WeatherDisplay:10.37,2013-09-23 04:04:00,
2013-09-23 00:09:00,46.7,43.0,30.07,East,89,0.0,0.0,87,0.00,CLR,,0.00,WeatherDisplay:10.37,2013-09-23 04:09:00,
2013-09-23 00:10:00,46.7,43.0,30.07,East,89,0.0,0.0,87,0.00,CLR,,0.00,WeatherDisplay:10.37,2013-09-23 04:10:00,
2013-09-23 00:15:00,46.6,42.6,30.07,East,89,0.0,0.0,86,0.00,CLR,,0.00,WeatherDisplay:10.37,2013-09-23 04:15:00,
2013-09-23 00:20:00,46.5,42.2,30.07,East,88,2.0,0.0,85,0.00,CLR,,0.00,WeatherDisplay:10.37,2013-09-23 04:20:00,
2013-09-23 00:25:00,46.5,42.2,30.07,East,88,0.0,0.0,85,0.00,CLR,,0.00,WeatherDisplay:10.37,2013-09-23 04:25:00,
2013-09-23 00:30:00,46.5,42.8,30.07,East,89,0.0,0.0,87,0.00,CLR,,0.00,WeatherDisplay:10.37,2013-09-23 04:30:00,
2013-09-23 00:35:00,46.4,42.4,30.07,East,89,0.0,0.0,86,0.00,CLR,,0.00,WeatherDisplay:10.37,2013-09-23 04:35:00,
2013-09-23 00:40:00,46.2,42.2,30.07,East,89,0.0,0.0,86,0.00,CLR,,0.00,WeatherDisplay:10.37,2013-09-23 04:40:00,
2013-09-23 00:45:00,46.0,42.0,30.07,East,89,0.0,0.0,86,0.00,CLR,,0.00,WeatherDisplay:10.37,2013-09-23 04:45:00,
2013-09-23 00:50:00,45.9,41.9,30.07,East,89,0.0,0.0,86,0.00,CLR,,0.00,WeatherDisplay:10.37,2013-09-23 04:50:00,
2013-09-23 00:55:00,45.8,41.9,30.07,East,88,0.0,0.0,86,0.00,CLR,,0.00,WeatherDisplay:10.37,2013-09-23 04:55:00,
2013-09-23 01:00:00,45.6,41.7,30.07,East,89,0.0,0.0,86,0.00,CLR,,0.00,WeatherDisplay:10.37,2013-09-23 05:00:00,
2013-09-23 01:05:00,45.4,41.5,30.07,East,89,0.0,0.0,86,0.00,CLR,,0.00,WeatherDisplay:10.37,2013-09-23 05:05:00,
2013-09-23 01:10:00,45.3,41.4,30.07,East,89,0.0,0.0,86,0.00,CLR,,0.00,WeatherDisplay:10.37,2013-09-23 05:10:00,
2013-09-23 01:15:00,45.1,41.2,30.07,East,88,0.0,0.0,86,0.00,CLR,,0.00,WeatherDisplay:10.37,2013-09-23 05:15:00,
2013-09-23 01:20:00,45.0,41.4,30.07,East,88,0.0,0.0,87,0.00,CLR,,0.00,WeatherDisplay:10.37,2013-09-23 05:20:00,
2013-09-23 01:25:00,44.9,41.3,30.07,East,88,0.0,0.0,87,0.00,CLR,,0.00,WeatherDisplay:10.37,2013-09-23 05:25:00,
2013-09-23 01:30:00,44.6,41.3,30.07,East,88,0.0,0.0,88,0.00,CLR,,0.00,WeatherDisplay:10.37,2013-09-23 05:30:00,
2013-09-23 01:35:00,44.3,41.0,30.07,East,89,0.0,0.0,88,0.00,CLR,,0.00,WeatherDisplay:10.37,2013-09-23 05:35:00,
2013-09-23 01:40:00,44.0,40.7,30.08,East,88,0.0,0.0,88,0.00,CLR,,0.00,WeatherDisplay:10.37,2013-09-23 05:40:00,
2013-09-23 01:45:00,43.8,40.8,30.08,East,89,0.0,0.0,89,0.00,CLR,,0.00,WeatherDisplay:10.37,2013-09-23 05:45:00,
2013-09-23 01:50:00,43.7,41.0,30.08,East,88,0.0,0.0,90,0.00,CLR,,0.00,WeatherDisplay:10.37,2013-09-23 05:50:00,
2013-09-23 01:55:00,43.5,40.8,30.08,East,89,0.0,0.0,90,0.00,CLR,,0.00,WeatherDisplay:10.37,2013-09-23 05:55:00,
2013-09-23 02:00:00,43.4,40.7,30.08,East,88,0.0,0.0,90,0.00,CLR,,0.00,WeatherDisplay:10.37,2013-09-23 06:00:00,
2013-09-23 02:05:00,43.3,40.8,30.08,East,89,0.0,0.0,91,0.00,CLR,,0.00,WeatherDisplay:10.37,2013-09-23 06:05:00,
2013-09-23 02:10:00,43.1,40.7,30.08,East,89,0.0,0.0,91,0.00,CLR,,0.00,WeatherDisplay:10.37,2013-09-23 06:10:00,
2013-09-23 02:15:00,42.9,40.2,30.08,East,88,0.0,0.0,90,0.00,CLR,,0.00,WeatherDisplay:10.37,2013-09-23 06:15:00,
2013-09-23 02:20:00,42.8,40.4,30.08,East,89,0.0,0.0,91,0.00,CLR,,0.00,WeatherDisplay:10.37,2013-09-23 06:20:00,
2013-09-23 02:25:00,42.7,40.3,30.08,East,88,0.0,0.0,91,0.00,CLR,,0.00,WeatherDisplay:10.37,2013-09-23 06:25:00,
2013-09-23 02:30:00,42.5,40.1,30.08,East,89,0.0,0.0,91,0.00,CLR,,0.00,WeatherDisplay:10.37,2013-09-23 06:30:00,
2013-09-23 02:35:00,42.3,39.9,30.09,East,88,0.0,0.0,91,0.00,CLR,,0.00,WeatherDisplay:10.37,2013-09-23 06:35:00,
2013-09-23 02:40:00,42.1,39.7,30.09,East,89,0.0,0.0,91,0.00,CLR,,0.00,WeatherDisplay:10.37,2013-09-23 06:40:00,
2013-09-23 02:45:00,41.8,39.6,30.09,East,89,0.0,0.0,92,0.00,CLR,,0.00,WeatherDisplay:10.37,2013-09-23 06:45:00,
2013-09-23 02:50:00,41.6,39.4,30.09,East,89,0.0,0.0,92,0.00,CLR,,0.00,WeatherDisplay:10.37,2013-09-23 06:50:00,
2013-09-23 02:55:00,41.5,39.3,30.09,East,89,0.0,0.0,92,0.00,CLR,,0.00,WeatherDisplay:10.37,2013-09-23 06:55:00,
2013-09-23 03:00:00,41.3,39.2,30.09,East,89,0.0,0.0,92,0.00,CLR,,0.00,WeatherDisplay:10.37,2013-09-23 07:00:00,
2013-09-23 03:05:00,41.0,39.1,30.09,East,89,0.0,0.0,93,0.00,CLR,,0.00,WeatherDisplay:10.37,2013-09-23 07:05:00,
2013-09-23 03:11:00,40.7,38.8,30.09,East,88,0.0,0.0,93,0.00,CLR,,0.00,WeatherDisplay:10.37,2013-09-23 07:11:00,
2013-09-23 03:16:00,40.5,38.6,30.09,East,88,0.0,0.0,93,0.00,CLR,,0.00,WeatherDisplay:10.37,2013-09-23 07:16:00,
2013-09-23 03:21:00,40.3,38.4,30.09,East,89,0.0,0.0,93,0.00,CLR,,0.00,WeatherDisplay:10.37,2013-09-23 07:21:00,
2013-09-23 03:26:00,40.1,38.2,30.09,East,89,0.0,0.0,93,0.00,CLR,,0.00,WeatherDisplay:10.37,2013-09-23 07:26:00,
2013-09-23 03:31:00,39.9,38.0,30.09,East,88,0.0,0.0,93,0.00,CLR,,0.00,WeatherDisplay:10.37,2013-09-23 07:31:00,
2013-09-23 03:36:00,39.7,38.1,30.09,East,89,0.0,0.0,94,0.00,CLR,,0.00,WeatherDisplay:10.37,2013-09-23 07:36:00,
2013-09-23 03:41:00,39.6,38.0,30.09,East,89,0.0,0.0,94,0.00,CLR,,0.00,WeatherDisplay:10.37,2013-09-23 07:41:00,
2013-09-23 03:46:00,39.5,37.9,30.09,East,89,0.0,0.0,94,0.00,CLR,,0.00,WeatherDisplay:10.37,2013-09-23 07:46:00,
2013-09-23 03:51:00,39.3,37.7,30.09,East,88,0.0,0.0,94,0.00,CLR,,0.00,WeatherDisplay:10.37,2013-09-23 07:51:00,
2013-09-23 03:56:00,39.3,37.7,30.09,East,89,0.0,0.0,94,0.00,CLR,,0.00,WeatherDisplay:10.37,2013-09-23 07:56:00,
2013-09-23 04:01:00,39.3,37.7,30.09,East,89,0.0,0.0,94,0.00,CLR,,0.00,WeatherDisplay:10.37,2013-09-23 08:01:00,
2013-09-23 04:06:00,39.3,37.7,30.09,East,88,0.0,0.0,94,0.00,CLR,,0.00,WeatherDisplay:10.37,2013-09-23 08:06:00,
2013-09-23 04:11:00,39.3,38.0,30.09,East,88,0.0,0.0,95,0.00,CLR,,0.00,WeatherDisplay:10.37,2013-09-23 08:11:00,
2013-09-23 04:16:00,39.2,37.9,30.09,East,89,0.0,0.0,95,0.00,CLR,,0.00,WeatherDisplay:10.37,2013-09-23 08:16:00,
2013-09-23 04:21:00,39.1,37.8,30.09,East,88,0.0,0.0,95,0.00,CLR,,0.00,WeatherDisplay:10.37,2013-09-23 08:21:00,
2013-09-23 04:26:00,39.2,37.9,30.09,East,88,0.0,0.0,95,0.00,CLR,,0.00,WeatherDisplay:10.37,2013-09-23 08:26:00,
2013-09-23 04:31:00,39.3,38.0,30.09,East,88,0.0,0.0,95,0.00,CLR,,0.00,WeatherDisplay:10.37,2013-09-23 08:31:00,
2013-09-23 04:36:00,39.3,38.0,30.10,East,89,0.0,0.0,95,0.00,CLR,,0.00,WeatherDisplay:10.37,2013-09-23 08:36:00,
2013-09-23 04:41:00,39.2,37.9,30.10,East,88,0.0,0.0,95,0.00,CLR,,0.00,WeatherDisplay:10.37,2013-09-23 08:41:00,
2013-09-23 04:46:00,39.1,37.8,30.10,East,89,0.0,0.0,95,0.00,CLR,,0.00,WeatherDisplay:10.37,2013-09-23 08:46:00,
2013-09-23 04:51:00,39.0,37.7,30.10,East,88,0.0,0.0,95,0.00,CLR,,0.00,WeatherDisplay:10.37,2013-09-23 08:51:00,
2013-09-23 04:56:00,39.0,37.7,30.10,East,89,0.0,0.0,95,0.00,CLR,,0.00,WeatherDisplay:10.37,2013-09-23 08:56:00,
2013-09-23 05:01:00,39.3,38.0,30.10,East,89,0.0,0.0,95,0.00,CLR,,0.00,WeatherDisplay:10.37,2013-09-23 09:01:00,
2013-09-23 05:06:00,39.5,38.5,30.10,East,88,0.0,0.0,96,0.00,CLR,,0.00,WeatherDisplay:10.37,2013-09-23 09:06:00,
2013-09-23 05:11:00,39.6,38.6,30.10,East,89,0.0,0.0,96,0.00,CLR,,0.00,WeatherDisplay:10.37,2013-09-23 09:11:00,
2013-09-23 05:16:00,39.7,38.7,30.10,East,88,0.0,0.0,96,0.00,CLR,,0.00,WeatherDisplay:10.37,2013-09-23 09:16:00,
2013-09-23 05:21:00,39.9,38.9,30.11,East,88,0.0,0.0,96,0.00,CLR,,0.00,WeatherDisplay:10.37,2013-09-23 09:21:00,
2013-09-23 05:26:00,40.0,39.0,30.11,East,88,0.0,0.0,96,0.00,CLR,,0.00,WeatherDisplay:10.37,2013-09-23 09:26:00,
2013-09-23 05:31:00,40.0,39.0,30.11,East,89,0.0,0.0,96,0.00,CLR,,0.00,WeatherDisplay:10.37,2013-09-23 09:31:00,
2013-09-23 05:36:00,40.0,39.0,30.10,East,89,0.0,0.0,96,0.00,CLR,,0.00,WeatherDisplay:10.37,2013-09-23 09:36:00,
2013-09-23 05:41:00,40.0,38.7,30.11,East,89,0.0,0.0,95,0.00,CLR,,0.00,WeatherDisplay:10.37,2013-09-23 09:41:00,
2013-09-23 05:46:00,40.0,39.0,30.10,East,89,0.0,0.0,96,0.00,CLR,,0.00,WeatherDisplay:10.37,2013-09-23 09:46:00,
2013-09-23 05:51:00,40.1,39.1,30.10,East,89,0.0,0.0,96,0.00,CLR,,0.00,WeatherDisplay:10.37,2013-09-23 09:51:00,
2013-09-23 05:57:00,40.2,39.2,30.10,East,89,0.0,0.0,96,0.00,CLR,,0.00,WeatherDisplay:10.37,2013-09-23 09:57:00,
2013-09-23 06:02:00,40.3,39.3,30.10,East,88,0.0,0.0,96,0.00,CLR,,0.00,WeatherDisplay:10.37,2013-09-23 10:02:00,
2013-09-23 06:07:00,40.3,39.0,30.11,East,88,0.0,0.0,95,0.00,CLR,,0.00,WeatherDisplay:10.37,2013-09-23 10:07:00,
2013-09-23 06:12:00,40.2,38.9,30.11,East,89,0.0,0.0,95,0.00,CLR,,0.00,WeatherDisplay:10.37,2013-09-23 10:12:00,
2013-09-23 06:17:00,40.2,38.9,30.11,East,88,0.0,0.0,95,0.00,CLR,,0.00,WeatherDisplay:10.37,2013-09-23 10:17:00,
2013-09-23 06:22:00,40.3,39.0,30.11,East,89,0.0,0.0,95,0.00,CLR,,0.00,WeatherDisplay:10.37,2013-09-23 10:22:00,
2013-09-23 06:27:00,40.4,39.1,30.11,East,89,0.0,0.0,95,0.00,CLR,,0.00,WeatherDisplay:10.37,2013-09-23 10:27:00,
2013-09-23 06:32:00,40.4,39.1,30.11,East,89,0.0,0.0,95,0.00,CLR,,0.00,WeatherDisplay:10.37,2013-09-23 10:32:00,
2013-09-23 06:37:00,40.4,38.8,30.11,East,89,0.0,0.0,94,0.00,CLR,,0.00,WeatherDisplay:10.37,2013-09-23 10:37:00,
2013-09-23 06:42:00,40.4,38.8,30.11,East,88,0.0,0.0,94,0.00,CLR,,0.00,WeatherDisplay:10.37,2013-09-23 10:42:00,
2013-09-23 06:47:00,40.4,38.8,30.11,East,89,0.0,0.0,94,0.00,CLR,,0.00,WeatherDisplay:10.37,2013-09-23 10:47:00,
2013-09-23 06:52:00,40.5,38.9,30.11,East,88,0.0,0.0,94,0.00,CLR,,0.00,WeatherDisplay:10.37,2013-09-23 10:52:00,
2013-09-23 06:57:00,40.5,38.9,30.12,East,89,0.0,0.0,94,0.00,CLR,,0.00,WeatherDisplay:10.37,2013-09-23 10:57:00,
2013-09-23 07:02:00,40.5,38.6,30.12,East,88,0.0,0.0,93,0.00,CLR,,0.00,WeatherDisplay:10.37,2013-09-23 11:02:00,
2013-09-23 07:07:00,40.6,38.7,30.12,East,89,0.0,0.0,93,0.00,CLR,,0.00,WeatherDisplay:10.37,2013-09-23 11:07:00,
2013-09-23 07:12:00,40.6,38.7,30.13,East,89,0.0,0.0,93,0.00,CLR,,0.00,WeatherDisplay:10.37,2013-09-23 11:12:00,
2013-09-23 07:17:00,40.5,38.6,30.13,East,88,0.0,0.0,93,0.00,CLR,,0.00,WeatherDisplay:10.37,2013-09-23 11:17:00,
2013-09-23 07:22:00,40.5,38.6,30.13,East,88,0.0,0.0,93,0.00,CLR,,0.00,WeatherDisplay:10.37,2013-09-23 11:22:00,
2013-09-23 07:27:00,40.5,38.6,30.13,East,89,0.0,0.0,93,0.00,CLR,,0.00,WeatherDisplay:10.37,2013-09-23 11:27:00,
2013-09-23 07:32:00,40.5,38.6,30.14,East,89,0.0,0.0,93,0.00,CLR,,0.00,WeatherDisplay:10.37,2013-09-23 11:32:00,
2013-09-23 07:37:00,40.6,38.7,30.14,East,88,0.0,0.0,93,0.00,CLR,,0.00,WeatherDisplay:10.37,2013-09-23 11:37:00,
2013-09-23 07:42:00,40.8,38.9,30.14,East,89,0.0,0.0,93,0.00,CLR,,0.00,WeatherDisplay:10.37,2013-09-23 11:42:00,
2013-09-23 07:47:00,40.7,38.6,30.14,East,89,0.0,0.0,92,0.00,CLR,,0.00,WeatherDisplay:10.37,2013-09-23 11:47:00,
2013-09-23 07:52:00,40.7,38.6,30.14,East,88,0.0,0.0,92,0.00,CLR,,0.00,WeatherDisplay:10.37,2013-09-23 11:52:00,
2013-09-23 07:57:00,40.7,38.6,30.15,East,89,0.0,0.0,92,0.00,CLR,,0.00,WeatherDisplay:10.37,2013-09-23 11:57:00,
2013-09-23 08:02:00,40.7,38.6,30.15,East,89,0.0,0.0,92,0.00,CLR,,0.00,WeatherDisplay:10.37,2013-09-23 12:02:00,
2013-09-23 08:07:00,40.7,38.6,30.15,East,89,0.0,0.0,92,0.00,CLR,,0.00,WeatherDisplay:10.37,2013-09-23 12:07:00,
2013-09-23 08:12:00,40.8,38.7,30.15,East,89,0.0,0.0,92,0.00,CLR,,0.00,WeatherDisplay:10.37,2013-09-23 12:12:00,
2013-09-23 08:17:00,40.9,38.5,30.15,East,89,0.0,0.0,91,0.00,CLR,,0.00,WeatherDisplay:10.37,2013-09-23 12:17:00,
2013-09-23 08:22:00,41.1,38.7,30.15,East,89,0.0,0.0,91,0.00,CLR,,0.00,WeatherDisplay:10.37,2013-09-23 12:22:00,
2013-09-23 08:27:00,41.2,38.8,30.15,East,89,0.0,0.0,91,0.00,CLR,,0.00,WeatherDisplay:10.37,2013-09-23 12:27:00,
2013-09-23 08:32:00,41.3,38.9,30.15,East,88,0.0,0.0,91,0.00,CLR,,0.00,WeatherDisplay:10.37,2013-09-23 12:32:00,
2013-09-23 08:37:00,41.5,39.1,30.15,East,89,0.0,0.0,91,0.00,CLR,,0.00,WeatherDisplay:10.37,2013-09-23 12:37:00,
2013-09-23 08:42:00,41.7,39.3,30.15,East,89,0.0,0.0,91,0.00,CLR,,0.00,WeatherDisplay:10.37,2013-09-23 12:42:00,
2013-09-23 08:47:00,41.8,39.1,30.15,East,89,1.1,0.0,90,0.00,CLR,,0.00,WeatherDisplay:10.37,2013-09-23 12:47:00,
2013-09-23 08:52:00,41.9,38.9,30.15,East,88,0.0,0.0,89,0.00,CLR,,0.00,WeatherDisplay:10.37,2013-09-23 12:52:00,
2013-09-23 08:57:00,42.0,39.0,30.15,East,89,0.0,0.0,89,0.00,CLR,,0.00,WeatherDisplay:10.37,2013-09-23 12:57:00,
2013-09-23 09:02:00,42.2,38.9,30.16,East,89,0.0,0.0,88,0.00,CLR,,0.00,WeatherDisplay:10.37,2013-09-23 13:02:00,
2013-09-23 09:07:00,42.3,39.0,30.16,East,88,0.0,0.0,88,0.00,CLR,,0.00,WeatherDisplay:10.37,2013-09-23 13:07:00,
2013-09-23 09:12:00,42.5,39.5,30.16,East,89,0.0,0.0,89,0.00,CLR,,0.00,WeatherDisplay:10.37,2013-09-23 13:12:00,
2013-09-23 09:17:00,42.7,39.4,30.16,East,89,0.0,0.0,88,0.00,CLR,,0.00,WeatherDisplay:10.37,2013-09-23 13:17:00,
2013-09-23 09:22:00,43.0,40.0,30.17,East,89,0.0,0.0,89,0.00,CLR,,0.00,WeatherDisplay:10.37,2013-09-23 13:22:00,
2013-09-23 09:27:00,43.4,40.1,30.16,East,88,0.0,0.0,88,0.00,CLR,,0.00,WeatherDisplay:10.37,2013-09-23 13:27:00,
2013-09-23 09:32:00,43.7,40.4,30.16,East,89,0.0,0.0,88,0.00,CLR,,0.00,WeatherDisplay:10.37,2013-09-23 13:32:00,
2013-09-23 09:37:00,44.0,40.7,30.16,East,89,0.0,0.0,88,0.00,CLR,,0.00,WeatherDisplay:10.37,2013-09-23 13:37:00,
2013-09-23 09:42:00,44.2,40.6,30.16,East,88,0.0,0.0,87,0.00,CLR,,0.00,WeatherDisplay:10.37,2013-09-23 13:42:00,
2013-09-23 09:47:00,44.4,40.5,30.16,East,89,0.0,0.0,86,0.00,CLR,,0.00,WeatherDisplay:10.37,2013-09-23 13:47:00,
2013-09-23 09:52:00,44.7,40.8,30.16,East,88,0.0,0.0,86,0.00,CLR,,0.00,WeatherDisplay:10.37,2013-09-23 13:52:00,
2013-09-23 09:57:00,45.2,41.0,30.16,East,89,0.0,0.0,85,0.00,CLR,,0.00,WeatherDisplay:10.37,2013-09-23 13:57:00,
2013-09-23 10:02:00,45.7,41.4,30.16,East,88,0.0,0.0,85,0.00,CLR,,0.00,WeatherDisplay:10.37,2013-09-23 14:02:00,
2013-09-23 10:07:00,46.2,41.6,30.17,East,88,0.0,0.0,84,0.00,CLR,,0.00,WeatherDisplay:10.37,2013-09-23 14:07:00,
2013-09-23 10:12:00,46.7,42.4,30.17,East,89,0.0,0.0,85,0.00,CLR,,0.00,WeatherDisplay:10.37,2013-09-23 14:12:00,
2013-09-23 10:17:00,47.2,42.9,30.17,East,89,0.0,0.0,85,0.00,CLR,,0.00,WeatherDisplay:10.37,2013-09-23 14:17:00,
2013-09-23 10:22:00,47.6,42.7,30.17,East,88,1.1,0.0,83,0.00,CLR,,0.00,WeatherDisplay:10.37,2013-09-23 14:22:00,
2013-09-23 10:27:00,47.8,43.2,30.17,East,88,0.0,0.0,84,0.00,CLR,,0.00,WeatherDisplay:10.37,2013-09-23 14:27:00,
2013-09-23 10:32:00,48.1,43.5,30.17,East,89,0.0,0.0,84,0.00,CLR,,0.00,WeatherDisplay:10.37,2013-09-23 14:32:00,
2013-09-23 10:37:00,48.4,43.5,30.17,East,88,0.0,0.0,83,0.00,CLR,,0.00,WeatherDisplay:10.37,2013-09-23 14:37:00,
2013-09-23 10:42:00,48.8,43.5,30.17,East,88,0.0,0.0,82,0.00,CLR,,0.00,WeatherDisplay:10.37,2013-09-23 14:42:00,
2013-09-23 10:47:00,49.2,43.9,30.17,East,89,0.0,0.0,82,0.00,CLR,,0.00,WeatherDisplay:10.37,2013-09-23 14:47:00,
2013-09-23 10:52:00,49.6,44.0,30.18,East,89,0.0,0.0,81,0.00,CLR,,0.00,WeatherDisplay:10.37,2013-09-23 14:52:00,
2013-09-23 10:57:00,49.9,44.0,30.17,East,89,0.0,0.0,80,0.00,CLR,,0.00,WeatherDisplay:10.37,2013-09-23 14:57:00,
2013-09-23 11:02:00,50.3,44.7,30.17,East,88,0.0,0.0,81,0.00,CLR,,0.00,WeatherDisplay:10.37,2013-09-23 15:02:00,
2013-09-23 11:07:00,50.6,44.3,30.17,East,89,0.0,0.0,79,0.00,CLR,,0.00,WeatherDisplay:10.37,2013-09-23 15:07:00,
2013-09-23 11:12:00,50.9,45.3,30.17,East,89,0.0,0.0,81,0.00,CLR,,0.00,WeatherDisplay:10.37,2013-09-23 15:12:00,
2013-09-23 11:17:00,51.3,44.7,30.17,East,89,0.0,0.0,78,0.00,CLR,,0.00,WeatherDisplay:10.37,2013-09-23 15:17:00,
2013-09-23 11:22:00,51.5,43.8,30.18,East,89,0.0,0.0,75,0.00,CLR,,0.00,WeatherDisplay:10.37,2013-09-23 15:22:00,
2013-09-23 11:27:00,51.9,44.6,30.18,East,89,0.0,0.0,76,0.00,CLR,,0.00,WeatherDisplay:10.37,2013-09-23 15:27:00,
2013-09-23 11:32:00,52.2,44.2,30.17,East,89,0.0,0.0,74,0.00,CLR,,0.00,WeatherDisplay:10.37,2013-09-23 15:32:00,
2013-09-23 11:37:00,52.4,45.1,30.17,East,88,0.0,0.0,76,0.00,CLR,,0.00,WeatherDisplay:10.37,2013-09-23 15:37:00,
2013-09-23 11:42:00,52.7,44.6,30.17,East,89,0.0,0.0,74,0.00,CLR,,0.00,WeatherDisplay:10.37,2013-09-23 15:42:00,
2013-09-23 11:47:00,53.1,44.7,30.17,East,89,0.0,0.0,73,0.00,CLR,,0.00,WeatherDisplay:10.37,2013-09-23 15:47:00,
2013-09-23 11:52:00,53.4,42.7,30.17,East,89,0.0,0.0,67,0.00,CLR,,0.00,WeatherDisplay:10.37,2013-09-23 15:52:00,
2013-09-23 11:57:00,53.4,42.7,30.17,East,89,0.0,0.0,67,0.00,CLR,,0.00,WeatherDisplay:10.37,2013-09-23 15:57:00,
2013-09-23 12:02:00,53.6,42.5,30.17,East,88,1.1,1.1,66,0.00,CLR,,0.00,WeatherDisplay:10.37,2013-09-23 16:02:00,
2013-09-23 12:07:00,53.7,43.0,30.17,East,89,0.0,0.0,67,0.00,CLR,,0.00,WeatherDisplay:10.37,2013-09-23 16:07:00,
2013-09-23 12:12:00,53.9,42.8,30.17,East,88,1.0,1.0,66,0.00,CLR,,0.00,WeatherDisplay:10.37,2013-09-23 16:12:00,
2013-09-23 12:17:00,53.9,42.8,30.17,East,87,0.0,0.0,66,0.00,CLR,,0.00,WeatherDisplay:10.37,2013-09-23 16:17:00,
2013-09-23 12:22:00,54.2,43.5,30.17,East,88,1.1,0.0,67,0.00,CLR,,0.00,WeatherDisplay:10.37,2013-09-23 16:22:00,
2013-09-23 12:27:00,54.4,43.3,30.17,East,88,1.1,0.0,66,0.00,CLR,,0.00,WeatherDisplay:10.37,2013-09-23 16:27:00,
2013-09-23 12:32:00,54.4,43.7,30.17,East,87,1.1,0.0,67,0.00,CLR,,0.00,WeatherDisplay:10.37,2013-09-23 16:32:00,
2013-09-23 12:37:00,54.6,44.2,30.17,East,88,0.0,0.0,68,0.00,CLR,,0.00,WeatherDisplay:10.37,2013-09-23 16:37:00,
2013-09-23 12:42:00,54.6,43.5,30.17,East,90,0.0,0.0,66,0.00,CLR,,0.00,WeatherDisplay:10.37,2013-09-23 16:42:00,
2013-09-23 12:47:00,54.9,43.4,30.17,East,90,1.1,1.1,65,0.00,CLR,,0.00,WeatherDisplay:10.37,2013-09-23 16:47:00,
2013-09-23 12:52:00,54.9,43.7,30.16,East,93,1.1,0.0,66,0.00,CLR,,0.00,WeatherDisplay:10.37,2013-09-23 16:52:00,
2013-09-23 12:57:00,55.0,43.4,30.16,East,94,1.1,0.0,65,0.00,CLR,,0.00,WeatherDisplay:10.37,2013-09-23 16:57:00,
2013-09-23 13:02:00,55.3,43.7,30.16,SE,134,7.0,7.0,65,0.00,CLR,,0.00,WeatherDisplay:10.37,2013-09-23 17:02:00,
2013-09-23 13:07:00,55.3,43.7,30.16,SE,134,0.0,0.0,65,0.00,CLR,,0.00,WeatherDisplay:10.37,2013-09-23 17:07:00,
2013-09-23 13:12:00,55.5,43.9,30.16,SE,134,1.1,0.0,65,0.00,CLR,,0.00,WeatherDisplay:10.37,2013-09-23 17:12:00,
2013-09-23 13:17:00,55.4,44.2,30.16,SE,133,1.0,1.0,66,0.00,CLR,,0.00,WeatherDisplay:10.37,2013-09-23 17:17:00,
2013-09-23 13:22:00,55.4,45.0,30.16,ENE,71,4.6,4.6,68,0.00,CLR,,0.00,WeatherDisplay:10.37,2013-09-23 17:22:00,
2013-09-23 13:27:00,55.4,44.2,30.16,ENE,71,0.0,0.0,66,0.00,CLR,,0.00,WeatherDisplay:10.37,2013-09-23 17:27:00,
2013-09-23 13:32:00,55.8,45.4,30.16,ENE,71,0.0,0.0,68,0.00,CLR,,0.00,WeatherDisplay:10.37,2013-09-23 17:32:00,
2013-09-23 13:37:00,55.8,44.6,30.16,ENE,59,0.0,0.0,66,0.00,CLR,,0.00,WeatherDisplay:10.37,2013-09-23 17:37:00,
2013-09-23 13:42:00,56.0,45.6,30.16,ENE,60,1.1,0.0,68,0.00,CLR,,0.00,WeatherDisplay:10.37,2013-09-23 17:42:00,
2013-09-23 13:48:00,55.7,44.5,30.16,SSE,164,1.1,0.0,66,0.00,CLR,,0.00,WeatherDisplay:10.37,2013-09-23 17:48:00,
2013-09-23 13:53:00,55.7,44.1,30.16,South,174,3.5,3.5,65,0.00,CLR,,0.00,WeatherDisplay:10.37,2013-09-23 17:53:00,
2013-09-23 13:58:00,55.8,43.8,30.16,South,169,0.0,0.0,64,0.00,CLR,,0.00,WeatherDisplay:10.37,2013-09-23 17:58:00,
2013-09-23 14:03:00,56.3,44.3,30.16,SE,132,3.5,0.0,64,0.00,CLR,,0.00,WeatherDisplay:10.37,2013-09-23 18:03:00,
2013-09-23 14:08:00,56.6,44.6,30.16,SE,132,0.0,0.0,64,0.00,CLR,,0.00,WeatherDisplay:10.37,2013-09-23 18:08:00,
2013-09-23 14:13:00,56.6,45.0,30.16,SSE,153,4.0,4.0,65,0.00,CLR,,0.00,WeatherDisplay:10.37,2013-09-23 18:13:00,
2013-09-23 14:18:00,56.5,44.9,30.15,SSE,156,0.0,0.0,65,0.00,CLR,,0.00,WeatherDisplay:10.37,2013-09-23 18:18:00,
2013-09-23 14:23:00,56.7,44.7,30.15,SSE,164,0.0,1.4,64,0.00,CLR,,0.00,WeatherDisplay:10.37,2013-09-23 18:23:00,
2013-09-23 14:28:00,57.0,44.5,30.15,SSE,159,3.5,3.5,63,0.00,CLR,,0.00,WeatherDisplay:10.37,2013-09-23 18:28:00,
2013-09-23 14:33:00,57.6,45.9,30.15,ESE,113,1.0,1.0,65,0.00,CLR,,0.00,WeatherDisplay:10.37,2013-09-23 18:33:00,
2013-09-23 14:38:00,58.1,46.0,30.15,ESE,108,1.1,0.0,64,0.00,CLR,,0.00,WeatherDisplay:10.37,2013-09-23 18:38:00,
2013-09-23 14:43:00,58.1,44.7,30.15,ESE,107,3.5,3.5,61,0.00,CLR,,0.00,WeatherDisplay:10.37,2013-09-23 18:43:00,
2013-09-23 14:48:00,58.3,46.2,30.15,SE,128,0.0,0.1,64,0.00,CLR,,0.00,WeatherDisplay:10.37,2013-09-23 18:48:00,
2013-09-23 14:53:00,59.0,45.6,30.15,SE,128,0.0,0.0,61,0.00,CLR,,0.00,WeatherDisplay:10.37,2013-09-23 18:53:00,
2013-09-23 14:58:00,59.4,44.6,30.14,ESE,114,2.3,0.0,58,0.00,CLR,,0.00,WeatherDisplay:10.37,2013-09-23 18:58:00,
2013-09-23 15:03:00,59.8,46.3,30.14,ESE,109,0.0,0.5,61,0.00,CLR,,0.00,WeatherDisplay:10.37,2013-09-23 19:03:00,
2013-09-23 15:08:00,60.1,46.2,30.14,East,92,1.1,0.0,60,0.00,CLR,,0.00,WeatherDisplay:10.37,2013-09-23 19:08:00,
2013-09-23 15:13:00,60.6,46.6,30.14,East,99,3.5,3.5,60,0.00,CLR,,0.00,WeatherDisplay:10.37,2013-09-23 19:13:00,
2013-09-23 15:18:00,60.5,45.6,30.14,SE,125,3.5,3.5,58,0.00,CLR,,0.00,WeatherDisplay:10.37,2013-09-23 19:18:00,
2013-09-23 15:23:00,60.3,46.4,30.14,ENE,72,2.3,2.3,60,0.00,CLR,,0.00,WeatherDisplay:10.37,2013-09-23 19:23:00,
2013-09-23 15:28:00,60.4,44.6,30.13,ENE,73,3.5,3.5,56,0.00,CLR,,0.00,WeatherDisplay:10.37,2013-09-23 19:28:00,
2013-09-23 15:33:00,60.4,46.4,30.13,SSE,156,0.0,1.7,60,0.00,CLR,,0.00,WeatherDisplay:10.37,2013-09-23 19:33:00,
2013-09-23 15:38:00,60.5,45.6,30.13,SE,130,1.1,1.1,58,0.00,CLR,,0.00,WeatherDisplay:10.37,2013-09-23 19:38:00,
2013-09-23 15:43:00,60.6,45.3,30.12,SSE,164,3.5,3.5,57,0.00,CLR,,0.00,WeatherDisplay:10.37,2013-09-23 19:43:00,
2013-09-23 15:48:00,60.6,45.7,30.12,ENE,67,1.1,1.1,58,0.00,CLR,,0.00,WeatherDisplay:10.37,2013-09-23 19:48:00,
2013-09-23 15:53:00,61.0,45.7,30.12,East,96,3.5,3.5,57,0.00,CLR,,0.00,WeatherDisplay:10.37,2013-09-23 19:53:00,
2013-09-23 15:58:00,60.8,45.0,30.12,East,91,3.5,3.5,56,0.00,CLR,,0.00,WeatherDisplay:10.37,2013-09-23 19:58:00,
2013-09-23 16:03:00,60.8,45.9,30.12,ESE,110,4.6,0.0,58,0.00,CLR,,0.00,WeatherDisplay:10.37,2013-09-23 20:03:00,
2013-09-23 16:08:00,61.1,46.2,30.12,ESE,111,0.0,0.0,58,0.00,CLR,,0.00,WeatherDisplay:10.37,2013-09-23 20:08:00,
2013-09-23 16:13:00,61.1,45.3,30.11,SSE,150,3.5,3.5,56,0.00,CLR,,0.00,WeatherDisplay:10.37,2013-09-23 20:13:00,
2013-09-23 16:18:00,61.0,45.2,30.11,SSE,150,1.1,0.0,56,0.00,CLR,,0.00,WeatherDisplay:10.37,2013-09-23 20:18:00,
2013-09-23 16:23:00,60.9,45.1,30.11,SSE,155,4.6,4.6,56,0.00,CLR,,0.00,WeatherDisplay:10.37,2013-09-23 20:23:00,
2013-09-23 16:28:00,60.6,44.8,30.11,ESE,105,0.0,0.0,56,0.00,CLR,,0.00,WeatherDisplay:10.37,2013-09-23 20:28:00,
2013-09-23 16:33:00,60.5,44.2,30.11,SSE,162,3.5,3.5,55,0.00,CLR,,0.00,WeatherDisplay:10.37,2013-09-23 20:33:00,
2013-09-23 16:38:00,60.9,44.6,30.11,SSE,161,0.0,0.1,55,0.00,CLR,,0.00,WeatherDisplay:10.37,2013-09-23 20:38:00,
2013-09-23 16:43:00,61.6,45.7,30.11,SSE,155,1.0,1.0,56,0.00,CLR,,0.00,WeatherDisplay:10.37,2013-09-23 20:43:00,
2013-09-23 16:48:00,61.6,44.3,30.11,SSE,155,1.1,0.0,53,0.00,CLR,,0.00,WeatherDisplay:10.37,2013-09-23 20:48:00,
2013-09-23 16:53:00,61.4,45.1,30.11,SE,142,0.0,0.0,55,0.00,CLR,,0.00,WeatherDisplay:10.37,2013-09-23 20:53:00,
2013-09-23 16:58:00,61.6,45.3,30.10,SE,141,1.1,0.0,55,0.00,CLR,,0.00,WeatherDisplay:10.37,2013-09-23 20:58:00,
2013-09-23 17:03:00,61.7,44.9,30.10,SE,136,0.0,0.5,54,0.00,CLR,,0.00,WeatherDisplay:10.37,2013-09-23 21:03:00,
2013-09-23 17:08:00,61.2,44.9,30.11,SE,132,1.1,1.1,55,0.00,CLR,,0.00,WeatherDisplay:10.37,2013-09-23 21:08:00,
2013-09-23 17:13:00,61.2,45.8,30.11,ESE,113,3.5,3.5,57,0.00,CLR,,0.00,WeatherDisplay:10.37,2013-09-23 21:13:00,
2013-09-23 17:18:00,61.0,46.1,30.11,East,95,1.1,0.0,58,0.00,CLR,,0.00,WeatherDisplay:10.37,2013-09-23 21:18:00,
2013-09-23 17:20:00,61.0,45.7,30.11,East,94,1.1,1.1,57,0.00,CLR,,0.00,WeatherDisplay:10.37,2013-09-23 21:20:00,
2013-09-23 17:23:00,61.0,45.7,30.11,East,94,1.1,1.1,57,0.00,CLR,,0.00,WeatherDisplay:10.37,2013-09-23 21:23:00,
2013-09-23 17:28:00,61.0,45.7,30.11,East,94,1.1,1.1,57,0.00,CLR,,0.00,WeatherDisplay:10.37,2013-09-23 21:28:00,
2013-09-23 19:35:00,52.9,46.6,30.11,East,86,0.0,0.0,79,0.00,CLR,,0.00,WeatherDisplay:10.37,2013-09-23 23:35:00,
2013-09-23 19:40:00,52.3,46.3,30.11,East,86,0.0,0.0,80,0.00,CLR,,0.00,WeatherDisplay:10.37,2013-09-23 23:40:00,
2013-09-23 19:45:00,51.8,46.2,30.11,East,86,0.0,0.0,81,0.00,CLR,,0.00,WeatherDisplay:10.37,2013-09-23 23:45:00,
2013-09-23 19:50:00,51.4,45.8,30.10,East,86,0.0,0.0,81,0.00,CLR,,0.00,WeatherDisplay:10.37,2013-09-23 23:50:00,
2013-09-23 19:55:00,51.0,46.0,30.10,East,86,0.0,0.0,83,0.00,CLR,,0.00,WeatherDisplay:10.37,2013-09-23 23:55:00,
2013-09-23 20:01:00,50.6,45.9,30.11,East,86,0.0,0.0,84,0.00,CLR,,0.00,WeatherDisplay:10.37,2013-09-24 00:01:00,
2013-09-23 20:06:00,50.2,46.2,30.10,East,86,0.0,0.0,86,0.00,CLR,,0.00,WeatherDisplay:10.37,2013-09-24 00:06:00,
2013-09-23 20:11:00,49.8,45.8,30.11,East,86,0.0,0.0,86,0.00,CLR,,0.00,WeatherDisplay:10.37,2013-09-24 00:11:00,
2013-09-23 20:16:00,49.4,45.7,30.11,East,86,0.0,0.0,87,0.00,CLR,,0.00,WeatherDisplay:10.37,2013-09-24 00:16:00,
2013-09-23 20:21:00,49.0,45.6,30.11,East,86,0.0,0.0,88,0.00,CLR,,0.00,WeatherDisplay:10.37,2013-09-24 00:21:00,
2013-09-23 20:26:00,48.5,45.1,30.11,East,86,0.0,0.0,88,0.00,CLR,,0.00,WeatherDisplay:10.37,2013-09-24 00:26:00,
2013-09-23 20:31:00,48.1,44.7,30.11,East,86,0.0,0.0,88,0.00,CLR,,0.00,WeatherDisplay:10.37,2013-09-24 00:31:00,
2013-09-23 20:36:00,47.7,44.3,30.11,East,86,0.0,0.0,88,0.00,CLR,,0.00,WeatherDisplay:10.37,2013-09-24 00:36:00,
2013-09-23 20:41:00,47.4,44.3,30.10,East,86,0.0,0.0,89,0.00,CLR,,0.00,WeatherDisplay:10.37,2013-09-24 00:41:00,
2013-09-23 20:46:00,47.2,44.4,30.11,East,86,0.0,0.0,90,0.00,CLR,,0.00,WeatherDisplay:10.37,2013-09-24 00:46:00,
2013-09-23 20:51:00,47.0,44.2,30.10,East,86,0.0,0.0,90,0.00,CLR,,0.00,WeatherDisplay:10.37,2013-09-24 00:51:00,
2013-09-23 20:56:00,46.8,44.0,30.10,East,86,0.0,0.0,90,0.00,CLR,,0.00,WeatherDisplay:10.37,2013-09-24 00:56:00,
2013-09-23 21:01:00,46.6,43.8,30.11,East,86,0.0,0.0,90,0.00,CLR,,0.00,WeatherDisplay:10.37,2013-09-24 01:01:00,
2013-09-23 21:06:00,46.3,43.5,30.11,East,86,0.0,0.0,90,0.00,CLR,,0.00,WeatherDisplay:10.37,2013-09-24 01:06:00,
2013-09-23 21:11:00,45.9,43.4,30.11,East,86,0.0,0.0,91,0.00,CLR,,0.00,WeatherDisplay:10.37,2013-09-24 01:11:00,
2013-09-23 21:16:00,45.6,43.1,30.11,East,86,0.0,0.0,91,0.00,CLR,,0.00,WeatherDisplay:10.37,2013-09-24 01:16:00,
2013-09-23 21:21:00,45.2,42.7,30.11,East,86,0.0,0.0,91,0.00,CLR,,0.00,WeatherDisplay:10.37,2013-09-24 01:21:00,
2013-09-23 21:26:00,44.9,42.7,30.11,East,86,0.0,0.0,92,0.00,CLR,,0.00,WeatherDisplay:10.37,2013-09-24 01:26:00,
2013-09-23 21:31:00,44.5,42.3,30.11,East,86,0.0,0.0,92,0.00,CLR,,0.00,WeatherDisplay:10.37,2013-09-24 01:31:00,
2013-09-23 21:36:00,44.2,42.0,30.11,East,86,0.0,0.0,92,0.00,CLR,,0.00,WeatherDisplay:10.37,2013-09-24 01:36:00,
2013-09-23 21:41:00,43.9,41.7,30.11,East,86,0.0,0.0,92,0.00,CLR,,0.00,WeatherDisplay:10.37,2013-09-24 01:41:00,
2013-09-23 21:46:00,43.6,41.4,30.11,East,86,0.0,0.0,92,0.00,CLR,,0.00,WeatherDisplay:10.37,2013-09-24 01:46:00,
2013-09-23 21:51:00,43.4,41.5,30.11,East,86,0.0,0.0,93,0.00,CLR,,0.00,WeatherDisplay:10.37,2013-09-24 01:51:00,
2013-09-23 21:56:00,43.2,41.3,30.11,East,86,0.0,0.0,93,0.00,CLR,,0.00,WeatherDisplay:10.37,2013-09-24 01:56:00,
2013-09-23 22:01:00,43.0,41.1,30.11,East,86,0.0,0.0,93,0.00,CLR,,0.00,WeatherDisplay:10.37,2013-09-24 02:01:00,
2013-09-23 22:06:00,42.7,40.8,30.11,East,86,0.0,0.0,93,0.00,CLR,,0.00,WeatherDisplay:10.37,2013-09-24 02:06:00,
2013-09-23 22:11:00,42.5,40.6,30.11,East,86,0.0,0.0,93,0.00,CLR,,0.00,WeatherDisplay:10.37,2013-09-24 02:11:00,
2013-09-23 22:16:00,42.3,40.4,30.11,East,86,0.0,0.0,93,0.00,CLR,,0.00,WeatherDisplay:10.37,2013-09-24 02:16:00,
2013-09-23 22:21:00,42.1,40.5,30.11,East,86,0.0,0.0,94,0.00,CLR,,0.00,WeatherDisplay:10.37,2013-09-24 02:21:00,
2013-09-23 22:26:00,41.9,40.3,30.11,East,86,0.0,0.0,94,0.00,CLR,,0.00,WeatherDisplay:10.37,2013-09-24 02:26:00,
2013-09-23 22:31:00,41.7,40.1,30.11,East,86,0.0,0.0,94,0.00,CLR,,0.00,WeatherDisplay:10.37,2013-09-24 02:31:00,
2013-09-23 22:36:00,41.5,39.9,30.11,East,86,0.0,0.0,94,0.00,CLR,,0.00,WeatherDisplay:10.37,2013-09-24 02:36:00,
2013-09-23 22:41:00,41.2,39.6,30.11,East,86,0.0,0.0,94,0.00,CLR,,0.00,WeatherDisplay:10.37,2013-09-24 02:41:00,
2013-09-23 22:46:00,41.1,39.5,30.11,East,86,0.0,0.0,94,0.00,CLR,,0.00,WeatherDisplay:10.37,2013-09-24 02:46:00,
2013-09-23 22:51:00,41.1,39.5,30.12,East,86,0.0,0.0,94,0.00,CLR,,0.00,WeatherDisplay:10.37,2013-09-24 02:51:00,
2013-09-23 22:56:00,41.2,39.9,30.11,East,86,0.0,0.0,95,0.00,CLR,,0.00,WeatherDisplay:10.37,2013-09-24 02:56:00,
2013-09-23 23:01:00,41.1,39.5,30.11,East,86,0.0,0.0,94,0.00,CLR,,0.00,WeatherDisplay:10.37,2013-09-24 03:01:00,
2013-09-23 23:06:00,41.0,39.4,30.11,East,86,0.0,0.0,94,0.00,CLR,,0.00,WeatherDisplay:10.37,2013-09-24 03:06:00,
2013-09-23 23:11:00,40.9,39.6,30.11,East,86,0.0,0.0,95,0.00,CLR,,0.00,WeatherDisplay:10.37,2013-09-24 03:11:00,
2013-09-23 23:16:00,40.6,39.0,30.11,East,86,0.0,0.0,94,0.00,CLR,,0.00,WeatherDisplay:10.37,2013-09-24 03:16:00,
2013-09-23 23:21:00,40.5,39.2,30.11,East,86,0.0,0.0,95,0.00,CLR,,0.00,WeatherDisplay:10.37,2013-09-24 03:21:00,
2013-09-23 23:26:00,40.4,39.1,30.11,East,86,0.0,0.0,95,0.00,CLR,,0.00,WeatherDisplay:10.37,2013-09-24 03:26:00,
2013-09-23 23:31:00,40.2,38.9,30.11,East,86,0.0,0.0,95,0.00,CLR,,0.00,WeatherDisplay:10.37,2013-09-24 03:31:00,
2013-09-23 23:36:00,40.3,39.0,30.11,East,86,0.0,0.0,95,0.00,CLR,,0.00,WeatherDisplay:10.37,2013-09-24 03:36:00,
2013-09-23 23:41:00,40.2,38.9,30.11,East,86,0.0,0.0,95,0.00,CLR,,0.00,WeatherDisplay:10.37,2013-09-24 03:41:00,
2013-09-23 23:46:00,40.0,38.7,30.11,East,86,0.0,0.0,95,0.00,CLR,,0.00,WeatherDisplay:10.37,2013-09-24 03:46:00,
2013-09-23 23:51:00,39.9,38.6,30.11,East,86,0.0,0.0,95,0.00,CLR,,0.00,WeatherDisplay:10.37,2013-09-24 03:51:00,
2013-09-23 23:56:00,39.7,38.4,30.11,East,86,0.0,0.0,95,0.00,CLR,,0.00,WeatherDisplay:10.37,2013-09-24 03:56:00,